Location: Gull Harbor
(47.1000°N, 122.9000°W)
Time: 17:46:26
(UTC-07:00)

ISS - Pass Details

Date: 23 March 2019
Orbit: 408 x 410 km, 51.6° (Epoch: 21 April)

Event Time Altitude Azimuth Distance (km) Brightness Sun altitude
Rises 19:58:03 0° 213° (SSW) 2,324 0.4 -5.8°
Reaches altitude 10° 20:00:19 10° 201° (SSW) 1,467 -0.8 -6.2°
Maximum altitude 20:03:09 27° 141° (SE) 827 -2.7 -6.7°
Drops below altitude 10° 20:06:04 10° 81° (E) 1,503 -1.5 -7.2°
Enters shadow 20:06:20 - 79° (E) 1,596 -1.4 -7.2°
